GW3062 Weather Reports


Display with metric or nautical units.
time (UTC)temp
F
wind
direction
speed
MPH
gust
MPH
rain 1hr
in
rain 24hr
in
rain mn
in
humidity
%
barometer
mb
20260508081007 43 86 0.0 0.0 0.00 0.80 0.00 98 1013.1
20260508080507 44 86 0.0 0.0 0.00 0.80 0.00 98 1013.0
20260508080008 44 86 0.0 0.0 0.00 0.80 0.00 98 1013.0
20260508075507 44 86 0.0 0.0 0.00 0.82 0.00 98 1012.9
20260508075007 44 86 0.0 0.0 0.00 0.82 0.00 98 1013.0
20260508074507 44 86 0.0 0.0 0.00 0.82 0.00 98 1013.0
20260508074018 44 86 0.0 0.0 0.00 0.82 0.00 98 1013.1
20260508073508 44 86 0.0 0.0 0.00 0.82 0.00 98 1012.9
20260508073019 44 86 0.0 0.0 0.00 0.82 0.00 97 1012.9
20260508072507 44 86 0.0 0.0 0.00 0.82 0.00 97 1012.9
20260508072008 44 86 0.0 0.0 0.00 0.82 0.00 98 1012.8
20260508071507 45 86 0.0 0.0 0.00 0.82 0.00 98 1012.7
20260508071007 45 86 0.0 0.0 0.00 0.82 0.00 98 1012.7
20260508070507 45 86 0.0 0.0 0.00 0.82 0.00 98 1012.6
20260508070019 45 86 0.0 0.0 0.00 0.82 0.00 98 1012.5
20260508065507 45 86 0.0 0.0 0.00 0.82 0.00 98 1012.6
20260508065018 45 86 0.0 0.0 0.00 0.82 0.00 98 1012.5
20260508064507 45 86 0.0 0.0 0.00 0.82 0.00 98 1012.4
20260508064007 45 86 0.0 0.0 0.00 0.82 0.00 98 1012.4
20260508063507 45 86 0.0 0.0 0.00 0.82 0.00 98 1012.4
20260508063007 46 86 0.0 0.0 0.00 0.82 0.00 98 1012.5
20260508062507 46 86 0.0 0.0 0.00 0.82 0.00 98 1012.5
20260508062007 46 86 0.0 0.0 0.00 0.82 0.00 98 1012.5
20260508061507 46 86 0.0 0.0 0.00 0.82 0.00 98 1012.6
20260508061007 46 86 0.0 0.0 0.00 0.82 0.00 98 1012.5
20260508060507 46 86 0.0 0.0 0.00 0.82 0.00 98 1012.5
20260508060019 46 86 0.0 0.0 0.00 0.82 0.00 98 1012.5
20260508055507 47 86 0.0 0.0 0.00 0.86 0.00 98 1012.5
20260508055009 47 86 0.0 0.0 0.00 0.86 0.00 98 1012.5
20260508054508 47 86 0.0 0.0 0.00 0.86 0.00 98 1012.4
20260508054007 47 86 0.0 0.0 0.00 0.86 0.00 98 1012.4
20260508053518 47 86 0.0 0.0 0.00 0.86 0.00 98 1012.4
20260508053006 47 86 0.0 0.0 0.00 0.86 0.00 98 1012.5
20260508052508 47 86 0.0 0.0 0.00 0.86 0.00 98 1012.5
20260508052007 47 86 0.0 0.0 0.00 0.86 0.00 97 1012.4
20260508051507 47 86 0.0 0.0 0.00 0.86 0.00 97 1012.4
20260508051007 47 86 0.0 0.0 0.00 0.86 0.00 97 1012.4
20260508050508 47 86 0.0 0.0 0.00 0.86 0.00 97 1012.3
20260508050008 47 86 0.0 0.0 0.00 0.86 0.00 97 1012.1
20260508045507 47 86 0.0 0.0 0.00 0.87 0.00 97 1012.2
20260508045008 47 86 0.0 0.0 0.00 0.87 0.00 97 1012.0
20260508044507 47 86 0.0 0.0 0.00 0.87 0.00 97 1012.0
20260508044007 47 86 0.0 0.0 0.00 0.87 0.00 97 1012.0
20260508043507 47 86 0.0 0.0 0.00 0.87 0.00 97 1012.0
20260508043019 48 86 0.0 0.0 0.00 0.87 0.00 97 1011.9
20260508042507 48 86 0.0 0.0 0.00 0.87 0.00 97 1011.9
20260508042007 48 86 0.0 0.0 0.00 0.87 0.00 97 1011.9
20260508041507 48 86 0.0 0.0 0.00 0.87 0.00 97 1011.8
20260508041008 48 86 0.0 0.0 0.00 0.87 0.00 97 1011.8
20260508040507 48 86 0.0 0.0 0.00 0.87 0.00 97 1011.8
20260508035507 49 86 0.0 0.0 0.00 0.91 0.87 97 1011.8
20260508035008 49 86 0.0 0.0 0.00 0.91 0.87 97 1011.7
20260508034519 49 86 0.0 0.0 0.00 0.91 0.87 97 1011.7
20260508034008 49 86 0.0 1.0 0.00 0.91 0.87 97 1011.7
20260508033518 49 86 0.0 0.0 0.00 0.91 0.87 96 1011.6
20260508033008 49 86 0.0 0.0 0.00 0.91 0.87 96 1011.7
20260508032507 49 86 0.0 0.0 0.00 0.91 0.87 96 1011.7
20260508032008 50 86 0.0 0.0 0.00 0.91 0.87 97 1011.7
20260508031508 50 86 0.0 0.0 0.00 0.91 0.87 97 1011.7
20260508031008 50 86 0.0 0.0 0.00 0.91 0.87 97 1011.6
20260508030508 50 86 0.0 0.0 0.00 0.91 0.87 97 1011.3
20260508030008 50 86 0.0 0.0 0.00 0.98 0.87 97 1011.5
20260508025519 50 86 0.0 0.0 0.00 0.98 0.87 96 1011.4
20260508025007 51 86 0.0 0.0 0.00 0.98 0.87 97 1011.6
20260508024507 51 86 0.0 0.0 0.00 0.98 0.87 97 1011.5
20260508024018 51 86 0.0 0.0 0.00 0.98 0.87 96 1011.4
20260508023507 51 86 0.0 0.0 0.00 0.98 0.87 96 1011.4
20260508023008 51 86 0.0 0.0 0.00 0.98 0.87 96 1011.4
20260508022508 51 86 0.0 0.0 0.00 0.98 0.87 96 1011.2
20260508022008 51 86 0.0 0.0 0.00 0.98 0.87 96 1011.1
20260508021519 52 86 0.0 0.0 0.00 0.98 0.87 96 1010.9
20260508021008 52 86 0.0 0.0 0.00 0.98 0.87 96 1010.8
20260508020508 52 86 0.0 0.0 0.00 0.98 0.87 96 1010.9
20260508020008 53 86 0.0 0.0 0.00 1.00 0.87 96 1010.8
20260508015507 53 86 0.0 0.0 0.00 1.00 0.87 96 1010.7
20260508015007 53 86 0.0 0.0 0.00 1.00 0.87 96 1010.7
20260508014507 53 86 0.0 0.0 0.00 1.00 0.87 96 1010.5
20260508014019 53 86 0.0 0.0 0.00 1.00 0.87 96 1010.3
20260508013507 53 86 0.0 0.0 0.00 1.00 0.87 96 1010.3
20260508013008 53 86 0.0 0.0 0.00 1.00 0.87 95 1010.3
20260508012508 53 86 0.0 0.0 0.00 1.00 0.87 95 1010.1
20260508012008 54 86 0.0 0.0 0.00 1.00 0.87 95 1010.0
20260508011508 54 86 0.0 0.0 0.00 1.00 0.87 95 1010.0
20260508011019 54 86 0.0 1.0 0.00 1.00 0.87 95 1009.9
20260508010508 54 86 0.0 1.0 0.00 1.00 0.87 95 1009.9
20260508010009 54 86 0.0 0.0 0.00 1.00 0.87 95 1009.6
20260508005519 55 86 0.0 0.0 0.00 1.01 0.87 94 1009.6
20260508005008 55 86 0.0 0.0 0.00 1.01 0.87 94 1009.7
20260508004519 55 86 0.0 0.0 0.00 1.01 0.87 94 1009.7
20260508004008 55 86 0.0 0.0 0.00 1.01 0.87 94 1009.6
20260508003507 56 86 0.0 0.0 0.00 1.01 0.87 93 1009.4
20260508003008 56 86 0.0 0.0 0.00 1.01 0.87 93 1009.4
20260508002508 56 86 0.0 0.0 0.00 1.01 0.87 92 1009.5
20260508002019 57 86 0.0 1.0 0.00 1.01 0.87 92 1009.5
20260508001508 57 86 0.0 1.0 0.00 1.01 0.87 91 1009.4
20260508001009 57 86 0.0 1.0 0.00 1.01 0.87 91 1009.3
20260508000519 58 86 0.0 0.0 0.00 1.01 0.87 91 1009.3
20260508000009 58 86 0.0 0.0 0.00 1.01 0.87 91 1009.3
20260507235508 58 86 0.0 0.0 0.00 1.02 0.87 90 1009.4
20260507235019 58 86 0.0 0.0 0.00 1.02 0.87 90 1009.5
20260507234519 58 86 0.0 0.0 0.00 1.02 0.87 90 1009.3
20260507234008 58 86 0.0 0.0 0.00 1.02 0.87 89 1009.4
20260507233519 58 86 0.0 1.0 0.00 1.02 0.87 89 1009.3
20260507233008 58 86 0.0 1.0 0.00 1.02 0.87 89 1009.2
20260507232508 59 86 0.0 1.0 0.00 1.02 0.87 89 1009.0
20260507232019 59 86 0.0 1.0 0.00 1.02 0.87 89 1008.9
20260507231508 59 95 0.0 1.0 0.00 1.02 0.87 89 1008.9
20260507231008 58 95 0.0 2.0 0.00 1.02 0.87 89 1008.8
20260507230508 58 96 0.0 2.0 0.00 1.02 0.87 88 1008.6
20260507230021 59 92 0.0 2.0 0.00 1.02 0.87 88 1008.5
20260507225508 59 50 0.0 2.0 0.00 1.02 0.87 89 1008.6
20260507225008 59 86 0.0 2.0 0.00 1.02 0.87 89 1008.4
20260507224508 59 48 0.0 1.0 0.00 1.02 0.87 89 1008.2
20260507224008 59 70 0.0 2.0 0.00 1.02 0.87 90 1008.2
20260507223509 59 53 0.0 2.0 0.00 1.02 0.87 90 1007.9
20260507223008 58 94 0.0 2.0 0.00 1.02 0.87 90 1007.8
20260507222519 58 65 0.0 4.0 0.00 1.02 0.87 90 1007.7
20260507222008 58 67 1.0 4.0 0.00 1.02 0.87 90 1007.7
20260507221519 58 49 0.0 2.0 0.00 1.02 0.87 90 1007.8
20260507221019 58 43 0.0 2.0 0.00 1.02 0.87 90 1007.8
20260507220508 58 60 0.0 3.0 0.00 1.02 0.87 90 1007.8
20260507220021 58 70 0.0 3.0 0.00 1.02 0.87 90 1007.6
20260507215509 58 85 0.0 3.0 0.00 1.02 0.87 90 1007.6
20260507215008 58 32 0.0 3.0 0.00 1.02 0.87 90 1007.9
20260507214508 58 11 0.0 3.0 0.00 1.02 0.87 90 1007.9
20260507214009 58 75 0.0 4.0 0.00 1.02 0.87 90 1008.0
20260507213520 59 34 1.0 7.0 0.00 1.02 0.87 90 1007.7
20260507213008 59 105 1.0 7.0 0.00 1.02 0.87 90 1007.5
20260507212008 59 46 1.0 7.0 0.00 1.02 0.87 90 1007.4
20260507211509 59 104 2.0 7.0 0.00 1.02 0.87 89 1007.3
20260507211008 59 92 1.0 4.0 0.00 1.02 0.87 90 1007.3
20260507210508 59 42 1.0 4.0 0.00 1.02 0.87 91 1007.1
20260507210020 59 97 1.0 3.0 0.00 1.02 0.87 91 1007.3
20260507205520 59 109 1.0 4.0 0.00 1.02 0.87 91 1007.4
20260507205020 59 74 1.0 5.0 0.01 1.02 0.87 91 1007.5
20260507204508 59 66 1.0 5.0 0.06 1.02 0.87 91 1007.4
20260507204008 59 116 2.0 7.0 0.24 1.02 0.87 92 1007.5
20260507203520 59 78 2.0 7.0 0.43 1.02 0.87 91 1007.5
20260507203010 59 45 1.0 5.0 0.52 1.02 0.87 92 1007.5
20260507202508 59 89 1.0 4.0 0.56 1.02 0.87 92 1007.5
20260507202008 60 91 1.0 5.0 0.58 1.02 0.87 93 1007.3
20260507201509 59 43 1.0 9.0 0.58 1.02 0.87 94 1007.1
20260507201009 59 255 1.0 9.0 0.58 1.02 0.87 94 1007.2
20260507200508 59 88 2.0 5.0 0.58 1.02 0.87 93 1007.1
20260507200010 59 1 2.0 5.0 0.58 1.02 0.87 93 1007.4
20260507195509 59 86 1.0 5.0 0.58 1.02 0.87 93 1007.3
20260507195008 59 108 2.0 5.0 0.56 1.00 0.85 92 1007.4
20260507194508 60 60 2.0 4.0 0.50 0.94 0.79 92 1007.7
20260507194008 60 145 1.0 5.0 0.28 0.72 0.57 91 1007.6
20260507193508 61 224 2.0 7.0 0.13 0.57 0.42 89 1007.3
20260507193009 62 96 1.0 8.0 0.05 0.49 0.34 87 1007.1
20260507192508 63 100 3.0 7.0 0.02 0.46 0.31 84 1006.7
20260507192008 63 60 2.0 7.0 0.00 0.44 0.29 83 1006.7
20260507191508 64 245 2.0 7.0 0.00 0.44 0.29 82 1006.1
20260507191009 64 76 0.0 6.0 0.00 0.44 0.29 82 1006.6
20260507190509 64 51 1.0 6.0 0.00 0.44 0.29 81 1006.2
20260507185509 65 323 3.0 6.0 0.00 0.44 0.29 80 1006.2
20260507185008 65 294 2.0 6.0 0.00 0.44 0.29 81 1006.2
20260507184519 65 53 1.0 7.0 0.00 0.44 0.29 81 1006.9
20260507184009 66 122 1.0 7.0 0.00 0.44 0.29 81 1007.0
20260507183508 66 11 2.0 5.0 0.00 0.44 0.29 81 1006.8
20260507183020 66 105 0.0 7.0 0.00 0.44 0.29 81 1006.7
20260507182519 67 324 2.0 8.0 0.00 0.44 0.29 81 1006.7
20260507182009 68 312 3.0 8.0 0.00 0.44 0.29 79 1006.8
20260507181508 69 70 1.0 4.0 0.00 0.44 0.29 80 1006.9
20260507181009 69 88 0.0 7.0 0.00 0.44 0.29 81 1006.8
20260507180508 68 53 1.0 7.0 0.00 0.44 0.29 81 1006.8
20260507180009 68 39 2.0 5.0 0.00 0.44 0.29 81 1006.8
20260507175522 67 131 1.0 8.0 0.00 0.45 0.29 82 1006.8
20260507175008 67 319 1.0 8.0 0.00 0.45 0.29 82 1006.8
20260507174508 67 33 3.0 6.0 0.00 0.45 0.29 81 1006.9
20260507174019 67 84 1.0 4.0 0.00 0.45 0.29 82 1006.8
20260507173509 67 85 0.0 7.0 0.00 0.45 0.29 83 1006.8
20260507173019 68 57 3.0 7.0 0.00 0.45 0.29 80 1006.9
20260507172509 69 351 2.0 6.0 0.00 0.45 0.29 79 1006.9
20260507172009 70 88 1.0 3.0 0.00 0.45 0.29 79 1007.0
20260507171508 71 68 1.0 5.0 0.00 0.45 0.29 78 1007.2
20260507171008 72 106 2.0 5.0 0.00 0.45 0.29 80 1007.2
20260507170520 72 73 0.0 1.0 0.00 0.45 0.29 82 1007.1
20260507170009 72 73 0.0 1.0 0.00 0.45 0.29 79 1007.1
20260507165508 72 94 0.0 2.0 0.00 0.47 0.29 80 1007.0
20260507165020 72 99 0.0 2.0 0.00 0.47 0.29 81 1007.0
20260507164508 72 100 0.0 2.0 0.00 0.47 0.29 80 1007.0
20260507163509 72 67 0.0 1.0 0.00 0.47 0.29 83 1007.0
20260507163009 71 68 0.0 1.0 0.00 0.47 0.29 85 1006.9
20260507162509 71 95 0.0 2.0 0.00 0.47 0.29 87 1006.8
20260507161509 70 88 1.0 1.0 0.00 0.47 0.29 88 1006.7
20260507161008 69 87 0.0 1.0 0.00 0.47 0.29 91 1006.7
20260507160520 68 88 0.0 2.0 0.00 0.47 0.29 93 1006.7
20260507160019 67 88 0.0 2.0 0.00 0.47 0.29 93 1006.8
20260507155508 67 57 0.0 1.0 0.00 0.47 0.29 95 1006.8
20260507155009 66 63 0.0 1.0 0.00 0.47 0.29 94 1006.9
20260507154509 66 65 0.0 0.0 0.00 0.47 0.29 96 1007.2
20260507154009 66 65 0.0 0.0 0.00 0.47 0.29 95 1007.2
20260507153520 66 64 0.0 0.0 0.00 0.47 0.29 96 1007.5
20260507153008 66 64 0.0 0.0 0.00 0.47 0.29 96 1007.5
20260507152020 65 64 0.0 0.0 0.00 0.47 0.29 96 1007.6
20260507151509 65 64 0.0 0.0 0.00 0.47 0.29 96 1007.9
20260507151009 65 64 0.0 0.0 0.00 0.47 0.29 97 1008.0
20260507150509 65 64 0.0 1.0 0.00 0.47 0.29 97 1007.9
20260507150020 65 63 0.0 1.0 0.00 0.47 0.29 98 1007.7
20260507145508 65 70 0.0 1.0 0.00 0.47 0.29 97 1008.0
20260507145009 64 70 0.0 1.0 0.00 0.47 0.29 97 1008.0
20260507144520 64 70 0.0 1.0 0.00 0.47 0.29 97 1008.1
20260507144009 64 70 0.0 1.0 0.00 0.47 0.29 97 1008.1
20260507143510 65 70 0.0 1.0 0.00 0.47 0.29 98 1007.8
20260507143009 65 70 0.0 1.0 0.00 0.47 0.29 98 1007.2
20260507142509 64 70 0.0 1.0 0.01 0.47 0.29 98 1007.4
20260507142009 64 70 0.0 1.0 0.01 0.47 0.29 98 1007.2
20260507141020 64 70 0.0 0.0 0.03 0.47 0.29 98 1007.3
20260507140509 64 70 0.0 0.0 0.04 0.47 0.29 98 1007.3
20260507134509 63 70 0.0 1.0 0.10 0.47 0.29 98 1007.6
20260507134020 63 56 0.0 0.0 0.12 0.47 0.29 98 1007.6
20260507133508 63 56 0.0 0.0 0.13 0.47 0.29 98 1007.5
20260507133009 63 56 0.0 0.0 0.15 0.47 0.29 98 1007.2
20260507132509 62 56 0.0 0.0 0.16 0.46 0.28 98 1006.9
20260507132011 62 56 0.0 0.0 0.17 0.46 0.28 98 1006.8
20260507131509 62 56 0.0 1.0 0.17 0.45 0.27 98 1007.1
20260507131009 62 44 0.0 1.0 0.16 0.44 0.26 98 1006.8
20260507130509 62 63 0.0 0.0 0.15 0.43 0.25 98 1007.1
20260507130009 62 63 0.0 0.0 0.13 0.41 0.23 98 1007.5
20260507125509 62 63 0.0 0.0 0.11 0.39 0.21 98 1007.8
20260507125011 62 63 0.0 0.0 0.11 0.38 0.20 98 1008.3
20260507123509 62 63 0.0 0.0 0.07 0.33 0.15 98 1008.7
20260507123009 62 63 0.0 0.0 0.05 0.31 0.13 98 1008.9
20260507122509 62 63 0.0 0.0 0.04 0.30 0.12 98 1009.1
20260507122009 62 63 0.0 0.0 0.03 0.29 0.11 98 1009.2
20260507121509 62 63 0.0 0.0 0.02 0.28 0.10 98 1008.9
20260507121009 62 63 0.0 0.0 0.02 0.28 0.10 98 1008.5
20260507120509 62 63 0.0 0.0 0.03 0.28 0.10 98 1008.4
20260507120020 62 63 0.0 0.0 0.03 0.28 0.10 98 1008.2
20260507115509 62 63 0.0 0.0 0.02 0.27 0.09 98 1008.0
20260507115020 62 63 0.0 0.0 0.02 0.27 0.09 98 1008.2
20260507114509 62 63 0.0 0.0 0.02 0.27 0.09 98 1008.5
20260507114021 62 63 0.0 0.0 0.01 0.26 0.08 98 1008.7
20260507113510 62 63 0.0 0.0 0.01 0.26 0.08 98 1008.4
20260507112510 62 63 0.0 0.0 0.01 0.26 0.08 98 1008.2
20260507112009 62 63 0.0 1.0 0.01 0.26 0.08 98 1008.3
20260507111510 62 63 0.0 1.0 0.01 0.26 0.08 98 1007.9
20260507111009 62 63 0.0 0.0 0.00 0.25 0.07 98 1008.2
20260507110509 62 63 0.0 0.0 0.00 0.25 0.07 98 1008.2
20260507110009 62 63 0.0 0.0 0.00 0.25 0.07 98 1007.6
20260507105509 62 63 0.0 0.0 0.00 0.25 0.07 98 1007.4
20260507105009 62 63 0.0 0.0 0.00 0.25 0.07 98 1007.4
20260507104520 62 63 0.0 0.0 0.00 0.25 0.07 98 1007.5
20260507104009 62 63 0.0 0.0 0.00 0.25 0.07 98 1007.5
20260507103509 62 63 0.0 0.0 0.00 0.25 0.07 98 1007.8
20260507103009 62 63 0.0 0.0 0.00 0.25 0.07 98 1007.8
20260507102521 62 63 0.0 0.0 0.00 0.25 0.07 98 1007.7
20260507102010 62 63 0.0 0.0 0.00 0.25 0.07 98 1007.7
20260507101509 62 63 0.0 0.0 0.00 0.25 0.07 98 1007.5
20260507101009 62 63 0.0 0.0 0.00 0.25 0.07 98 1007.6
20260507100509 62 63 0.0 0.0 0.00 0.25 0.07 98 1007.5
20260507100021 62 63 0.0 0.0 0.00 0.25 0.07 98 1007.6
20260507095509 62 63 0.0 0.0 0.00 0.25 0.07 98 1007.8
20260507095009 62 63 0.0 0.0 0.00 0.25 0.07 98 1007.9
20260507094510 62 63 0.0 0.0 0.00 0.25 0.07 98 1007.8
20260507094009 62 63 0.0 0.0 0.00 0.25 0.07 98 1007.8
20260507093520 62 63 0.0 0.0 0.00 0.25 0.07 98 1007.9
20260507093009 62 63 0.0 0.0 0.00 0.25 0.07 98 1008.0
20260507092509 62 63 0.0 0.0 0.00 0.25 0.07 98 1008.2
20260507092009 62 63 0.0 0.0 0.00 0.25 0.07 98 1008.3
20260507091520 62 63 0.0 0.0 0.00 0.25 0.07 98 1007.9
20260507091010 62 63 0.0 0.0 0.00 0.25 0.07 98 1008.0
20260507090510 62 63 0.0 0.0 0.00 0.25 0.07 98 1007.7
20260507090009 62 63 0.0 0.0 0.00 0.25 0.07 98 1007.8
20260507085510 62 63 0.0 0.0 0.01 0.25 0.07 98 1008.3
20260507085009 62 63 0.0 0.0 0.01 0.25 0.07 98 1008.7
20260507084510 62 63 0.0 0.0 0.01 0.25 0.07 98 1008.5
20260507084009 62 57 0.0 1.0 0.01 0.25 0.07 98 1007.6
20260507083520 62 57 0.0 1.0 0.01 0.25 0.07 98 1007.5
20260507083020 62 56 0.0 0.0 0.01 0.25 0.07 97 1007.2
20260507082509 62 53 0.0 0.0 0.01 0.25 0.07 97 1007.0
20260507081521 62 53 0.0 0.0 0.01 0.25 0.07 97 1007.2